| time (UTC) | temp C | wind direction | speed KPH | gust KPH | rain 1hr cm | rain 24hr cm | rain mn cm | humidity % | barometer mb |
| 20260506233605 | 12 | 67 | 4.8 | 6.4 | 0.00 | 0.00 | 0.00 | 92 | |
| 20260506233052 | 12 | 67 | 3.2 | 6.4 | 0.00 | 0.00 | 0.00 | 92 | 1013.8 |
| 20260506232706 | 13 | 67 | 4.8 | 6.4 | 0.00 | 0.00 | 0.00 | 91 | |
| 20260506231805 | 13 | 67 | 4.8 | 6.4 | 0.00 | 0.00 | 0.00 | 91 | |
| 20260506231513 | 12 | 67 | 4.8 | 6.4 | 0.00 | 0.00 | 0.00 | 91 | 1013.7 |
| 20260506230906 | 13 | 67 | 1.6 | 4.8 | 0.00 | 0.00 | 0.00 | 91 | |
| 20260506230115 | 12 | 67 | 1.6 | 4.8 | 0.00 | 0.00 | 0.00 | 91 | 1013.9 |
| 20260506230005 | 13 | 67 | 1.6 | 3.2 | 0.00 | 0.00 | 0.00 | 90 | |
| 20260506225426 | 13 | 67 | 1.6 | 3.2 | 0.00 | 0.00 | 0.00 | 90 | |
| 20260506224605 | 13 | 67 | 1.6 | 3.2 | 0.00 | 0.00 | 0.00 | 90 | 1014.0 |
| 20260506224505 | 13 | 67 | 1.6 | 4.8 | 0.00 | 0.00 | 0.00 | 89 | |
| 20260506223605 | 13 | 67 | 1.6 | 4.8 | 0.00 | 0.00 | 0.00 | 89 | |
| 20260506223043 | 13 | 67 | 1.6 | 4.8 | 0.00 | 0.00 | 0.00 | 89 | 1014.0 |
| 20260506222705 | 13 | 67 | 3.2 | 4.8 | 0.00 | 0.00 | 0.00 | 89 | |
| 20260506221805 | 13 | 67 | 3.2 | 4.8 | 0.00 | 0.00 | 0.00 | 89 | |
| 20260506221518 | 13 | 67 | 1.6 | 4.8 | 0.00 | 0.00 | 0.00 | 89 | 1013.8 |
| 20260506220905 | 13 | 67 | 3.2 | 4.8 | 0.00 | 0.00 | 0.00 | 88 | |
| 20260506220005 | 14 | 67 | 0.0 | 3.2 | 0.00 | 0.00 | 0.00 | 88 | |
| 20260506215406 | 14 | 67 | 0.0 | 3.2 | 0.00 | 0.00 | 0.00 | 88 | |
| 20260506214608 | 13 | 67 | 0.0 | 3.2 | 0.00 | 0.00 | 0.00 | 88 | 1013.6 |
| 20260506214505 | 14 | 67 | 1.6 | 3.2 | 0.00 | 0.00 | 0.00 | 87 | |
| 20260506213605 | 14 | 67 | 1.6 | 3.2 | 0.00 | 0.00 | 0.00 | 87 | |
| 20260506213055 | 14 | 67 | 1.6 | 3.2 | 0.00 | 0.00 | 0.00 | 87 | 1013.8 |
| 20260506212705 | 15 | 67 | 0.0 | 3.2 | 0.00 | 0.00 | 0.00 | 87 | |
| 20260506211805 | 15 | 67 | 0.0 | 3.2 | 0.00 | 0.00 | 0.00 | 87 | |
| 20260506211539 | 15 | 67 | 0.0 | 3.2 | 0.00 | 0.00 | 0.00 | 87 | 1014.0 |
| 20260506210906 | 15 | 67 | 3.2 | 3.2 | 0.00 | 0.00 | 0.00 | 87 | |
| 20260506210016 | 15 | 67 | 0.0 | 3.2 | 0.00 | 0.00 | 0.00 | 87 | 1014.1 |
| 20260506210005 | 15 | 0 | 0.0 | 0.0 | 0.00 | 0.00 | 0.00 | 86 | |
| 20260506205405 | 15 | 0 | 0.0 | 0.0 | 0.00 | 0.00 | 0.00 | 86 | |
| 20260506204616 | 15 | 67 | 0.0 | 0.0 | 0.00 | 0.00 | 0.00 | 86 | 1014.0 |
| 20260506204505 | 15 | 67 | 4.8 | 6.4 | 0.00 | 0.00 | 0.00 | 86 | |
| 20260506203605 | 15 | 67 | 4.8 | 6.4 | 0.00 | 0.00 | 0.00 | 86 | |
| 20260506203054 | 15 | 67 | 3.2 | 6.4 | 0.00 | 0.00 | 0.00 | 86 | 1013.9 |
| 20260506202705 | 16 | 67 | 4.8 | 6.4 | 0.00 | 0.00 | 0.00 | 85 | |
| 20260506201805 | 16 | 67 | 4.8 | 6.4 | 0.00 | 0.00 | 0.00 | 85 | |
| 20260506201523 | 15 | 67 | 4.8 | 6.4 | 0.00 | 0.00 | 0.00 | 85 | 1013.9 |
| 20260506200905 | 16 | 67 | 4.8 | 6.4 | 0.00 | 0.00 | 0.00 | 85 | |
| 20260506200007 | 16 | 67 | 3.2 | 6.4 | 0.00 | 0.00 | 0.00 | 85 | 1013.7 |
| 20260506200005 | 16 | 67 | 8.0 | 8.0 | 0.00 | 0.00 | 0.00 | 83 | |
| 20260506195405 | 16 | 67 | 8.0 | 8.0 | 0.00 | 0.00 | 0.00 | 83 | |
| 20260506194605 | 16 | 67 | 4.8 | 8.0 | 0.00 | 0.00 | 0.00 | 83 | 1013.6 |
| 20260506194505 | 17 | 67 | 3.2 | 6.4 | 0.00 | 0.00 | 0.00 | 82 | |
| 20260506193605 | 17 | 67 | 3.2 | 6.4 | 0.00 | 0.00 | 0.00 | 82 | |
| 20260506193046 | 17 | 67 | 3.2 | 6.4 | 0.00 | 0.00 | 0.00 | 82 | 1013.3 |
| 20260506192705 | 17 | 67 | 3.2 | 8.0 | 0.00 | 0.00 | 0.00 | 80 | |
| 20260506191806 | 17 | 67 | 3.2 | 8.0 | 0.00 | 0.00 | 0.00 | 80 | |
| 20260506191511 | 17 | 67 | 3.2 | 8.0 | 0.00 | 0.00 | 0.00 | 80 | 1013.1 |
| 20260506190906 | 17 | 247 | 4.8 | 16.1 | 0.00 | 0.00 | 0.00 | 79 | |
| 20260506190006 | 18 | 315 | 4.8 | 12.9 | 0.00 | 0.00 | 0.00 | 75 | |
| 20260506185405 | 18 | 315 | 4.8 | 12.9 | 0.00 | 0.00 | 0.00 | 75 | |
| 20260506184514 | 18 | 110 | 4.8 | 12.9 | 0.00 | 0.00 | 0.00 | 75 | 1012.7 |
| 20260506184506 | 18 | 135 | 3.2 | 12.9 | 0.00 | 0.00 | 0.00 | 73 | |
| 20260506183606 | 18 | 135 | 3.2 | 12.9 | 0.00 | 0.00 | 0.00 | 73 | |
| 20260506183104 | 18 | 102 | 3.2 | 12.9 | 0.00 | 0.00 | 0.00 | 73 | 1012.7 |
| 20260506182726 | 19 | 112 | 6.4 | 16.1 | 0.00 | 0.00 | 0.00 | 72 | |
| 20260506181827 | 19 | 112 | 6.4 | 16.1 | 0.00 | 0.00 | 0.00 | 72 | |
| 20260506181555 | 18 | 117 | 9.7 | 16.1 | 0.00 | 0.00 | 0.00 | 72 | 1012.7 |
| 20260506180905 | 20 | 360 | 11.3 | 16.1 | 0.00 | 0.00 | 0.00 | 69 | |
| 20260506180026 | 20 | 90 | 11.3 | 17.7 | 0.00 | 0.00 | 0.00 | 67 | |
| 20260506180022 | 19 | 112 | 11.3 | 16.1 | 0.00 | 0.00 | 0.00 | 69 | 1012.6 |
| 20260506175405 | 20 | 90 | 11.3 | 17.7 | 0.00 | 0.00 | 0.00 | 67 | |
| 20260506174505 | 20 | 315 | 12.9 | 19.3 | 0.00 | 0.00 | 0.00 | 67 | |
| 20260506173605 | 20 | 315 | 12.9 | 19.3 | 0.00 | 0.00 | 0.00 | 67 | |
| 20260506173130 | 19 | 94 | 11.3 | 19.3 | 0.00 | 0.00 | 0.00 | 67 | 1012.5 |
| 20260506172705 | 20 | 22 | 11.3 | 17.7 | 0.00 | 0.00 | 0.00 | 65 | |
| 20260506171827 | 20 | 22 | 11.3 | 17.7 | 0.00 | 0.00 | 0.00 | 65 | |
| 20260506171548 | 20 | 113 | 11.3 | 17.7 | 0.00 | 0.00 | 0.00 | 65 | 1012.7 |
| 20260506170905 | 21 | 270 | 8.0 | 22.5 | 0.00 | 0.00 | 0.00 | 61 | |
| 20260506170026 | 22 | 315 | 20.9 | 22.5 | 0.00 | 0.00 | 0.00 | 58 | |
| 20260506170007 | 21 | 140 | 12.9 | 22.5 | 0.00 | 0.00 | 0.00 | 61 | 1012.5 |
| 20260506165426 | 22 | 315 | 20.9 | 22.5 | 0.00 | 0.00 | 0.00 | 58 | |
| 20260506164608 | 21 | 126 | 16.1 | 22.5 | 0.00 | 0.00 | 0.00 | 58 | 1012.5 |
| 20260506164505 | 22 | 360 | 11.3 | 20.9 | 0.00 | 0.00 | 0.00 | 58 | |
| 20260506163605 | 22 | 360 | 11.3 | 20.9 | 0.00 | 0.00 | 0.00 | 58 | |
| 20260506163105 | 22 | 128 | 12.9 | 20.9 | 0.00 | 0.00 | 0.00 | 58 | 1012.4 |
| 20260506162705 | 22 | 157 | 12.9 | 22.5 | 0.00 | 0.00 | 0.00 | 55 | |
| 20260506161805 | 22 | 157 | 12.9 | 22.5 | 0.00 | 0.00 | 0.00 | 55 | |
| 20260506161538 | 22 | 119 | 12.9 | 22.5 | 0.00 | 0.00 | 0.00 | 55 | 1012.5 |
| 20260506160905 | 22 | 360 | 6.4 | 24.1 | 0.00 | 0.00 | 0.00 | 55 | |
| 20260506160011 | 22 | 128 | 12.9 | 24.1 | 0.00 | 0.00 | 0.00 | 55 | 1012.4 |
| 20260506160005 | 23 | 315 | 14.5 | 22.5 | 0.00 | 0.00 | 0.00 | 48 | |
| 20260506155405 | 23 | 315 | 14.5 | 22.5 | 0.00 | 0.00 | 0.00 | 48 | |
| 20260506154610 | 22 | 126 | 16.1 | 22.5 | 0.00 | 0.00 | 0.00 | 48 | 1012.3 |
| 20260506154506 | 22 | 315 | 16.1 | 24.1 | 0.00 | 0.00 | 0.00 | 51 | |
| 20260506153605 | 22 | 315 | 16.1 | 24.1 | 0.00 | 0.00 | 0.00 | 51 | |
| 20260506153058 | 22 | 142 | 14.5 | 24.1 | 0.00 | 0.00 | 0.00 | 51 | 1012.2 |
| 20260506152705 | 22 | 180 | 11.3 | 22.5 | 0.00 | 0.00 | 0.00 | 52 | |
| 20260506151806 | 22 | 180 | 11.3 | 22.5 | 0.00 | 0.00 | 0.00 | 52 | |
| 20260506151541 | 22 | 120 | 12.9 | 22.5 | 0.00 | 0.00 | 0.00 | 52 | 1012.3 |
| 20260506150905 | 22 | 112 | 11.3 | 22.5 | 0.00 | 0.00 | 0.00 | 53 | |
| 20260506150012 | 22 | 117 | 12.9 | 22.5 | 0.00 | 0.00 | 0.00 | 53 | 1012.3 |
| 20260506150005 | 23 | 225 | 6.4 | 27.4 | 0.00 | 0.00 | 0.00 | 49 | |
| 20260506145412 | 23 | 225 | 6.4 | 27.4 | 0.00 | 0.00 | 0.00 | 49 | |
| 20260506144613 | 23 | 106 | 11.3 | 27.4 | 0.00 | 0.00 | 0.00 | 49 | 1012.5 |
| 20260506144526 | 23 | 180 | 4.8 | 25.7 | 0.00 | 0.00 | 0.00 | 50 | |
| 20260506143606 | 23 | 180 | 4.8 | 25.7 | 0.00 | 0.00 | 0.00 | 50 | |
| 20260506143059 | 23 | 120 | 14.5 | 25.7 | 0.00 | 0.00 | 0.00 | 50 | 1012.4 |
| 20260506142705 | 22 | 247 | 17.7 | 22.5 | 0.00 | 0.00 | 0.00 | 55 | |
| 20260506141805 | 22 | 247 | 17.7 | 22.5 | 0.00 | 0.00 | 0.00 | 55 | |
| 20260506141531 | 22 | 91 | 11.3 | 22.5 | 0.00 | 0.00 | 0.00 | 55 | 1012.6 |
| 20260506140905 | 22 | 360 | 9.7 | 20.9 | 0.00 | 0.00 | 0.00 | 56 | |
| 20260506140027 | 23 | 247 | 20.9 | 22.5 | 0.00 | 0.00 | 0.00 | 51 | |
| 20260506140009 | 21 | 112 | 12.9 | 20.9 | 0.00 | 0.00 | 0.00 | 56 | 1012.9 |
| 20260506135405 | 23 | 247 | 20.9 | 22.5 | 0.00 | 0.00 | 0.00 | 51 | |
| 20260506134612 | 23 | 123 | 14.5 | 22.5 | 0.00 | 0.00 | 0.00 | 51 | 1012.8 |
| 20260506134505 | 23 | 202 | 3.2 | 24.1 | 0.00 | 0.00 | 0.00 | 50 | |
| 20260506133605 | 23 | 202 | 3.2 | 24.1 | 0.00 | 0.00 | 0.00 | 50 | |
| 20260506133048 | 23 | 57 | 12.9 | 24.1 | 0.00 | 0.00 | 0.00 | 50 | 1012.9 |
| 20260506132705 | 24 | 112 | 14.5 | 29.0 | 0.00 | 0.00 | 0.00 | 49 | |
| 20260506131805 | 24 | 112 | 14.5 | 29.0 | 0.00 | 0.00 | 0.00 | 49 | |
| 20260506131523 | 23 | 133 | 14.5 | 29.0 | 0.00 | 0.00 | 0.00 | 49 | 1012.8 |
| 20260506130905 | 23 | 67 | 6.4 | 25.7 | 0.00 | 0.00 | 0.00 | 50 | |
| 20260506130121 | 23 | 67 | 4.8 | 25.7 | 0.00 | 0.00 | 0.00 | 50 | 1013.0 |
| 20260506130005 | 23 | 225 | 20.9 | 20.9 | 0.00 | 0.00 | 0.00 | 54 | |
| 20260506125426 | 23 | 225 | 20.9 | 20.9 | 0.00 | 0.00 | 0.00 | 54 | |
| 20260506124536 | 23 | 58 | 11.3 | 20.9 | 0.00 | 0.00 | 0.00 | 54 | 1013.0 |
| 20260506124506 | 23 | 90 | 12.9 | 27.4 | 0.00 | 0.00 | 0.00 | 54 | |
| 20260506123606 | 23 | 90 | 12.9 | 27.4 | 0.00 | 0.00 | 0.00 | 54 | |
| 20260506123113 | 22 | 84 | 14.5 | 27.4 | 0.00 | 0.00 | 0.00 | 54 | 1012.9 |
| 20260506122705 | 24 | 292 | 20.9 | 27.4 | 0.00 | 0.00 | 0.00 | 55 | |
| 20260506121806 | 24 | 292 | 20.9 | 27.4 | 0.00 | 0.00 | 0.00 | 55 | |
| 20260506121553 | 23 | 141 | 17.7 | 27.4 | 0.00 | 0.00 | 0.00 | 55 | 1012.8 |
| 20260506120906 | 24 | 292 | 22.5 | 33.8 | 0.00 | 0.00 | 0.00 | 55 | |
| 20260506120019 | 23 | 141 | 19.3 | 33.8 | 0.00 | 0.00 | 0.00 | 55 | 1012.7 |
| 20260506120005 | 24 | 270 | 16.1 | 29.0 | 0.00 | 0.00 | 0.00 | 56 | |
| 20260506115405 | 24 | 270 | 16.1 | 29.0 | 0.00 | 0.00 | 0.00 | 56 | |
| 20260506114558 | 23 | 124 | 16.1 | 29.0 | 0.00 | 0.00 | 0.00 | 56 | 1012.4 |
| 20260506114505 | 24 | 135 | 17.7 | 30.6 | 0.00 | 0.00 | 0.00 | 58 | |
| 20260506113605 | 24 | 135 | 17.7 | 30.6 | 0.00 | 0.00 | 0.00 | 58 | |
| 20260506113012 | 23 | 118 | 20.9 | 30.6 | 0.00 | 0.00 | 0.00 | 58 | 1012.4 |
| 20260506112706 | 23 | 45 | 11.3 | 27.4 | 0.00 | 0.00 | 0.00 | 60 | |
| 20260506111805 | 23 | 45 | 11.3 | 27.4 | 0.00 | 0.00 | 0.00 | 60 | |
| 20260506111502 | 23 | 114 | 11.3 | 27.4 | 0.00 | 0.00 | 0.00 | 60 | 1012.5 |
| 20260506110906 | 23 | 90 | 17.7 | 29.0 | 0.00 | 0.00 | 0.00 | 63 | |
| 20260506110020 | 23 | 148 | 17.7 | 29.0 | 0.00 | 0.00 | 0.00 | 63 | 1012.6 |
| 20260506110005 | 21 | 315 | 14.5 | 25.7 | 0.00 | 0.00 | 0.00 | 67 | |
| 20260506105407 | 21 | 315 | 14.5 | 25.7 | 0.00 | 0.00 | 0.00 | 67 | |
| 20260506104616 | 21 | 110 | 12.9 | 25.7 | 0.00 | 0.00 | 0.00 | 67 | 1012.8 |
| 20260506104526 | 21 | 157 | 12.9 | 30.6 | 0.00 | 0.00 | 0.00 | 66 | |
| 20260506103605 | 21 | 157 | 12.9 | 30.6 | 0.00 | 0.00 | 0.00 | 66 | |
| 20260506103103 | 21 | 103 | 16.1 | 30.6 | 0.00 | 0.00 | 0.00 | 66 | 1012.9 |
| 20260506102705 | 22 | 315 | 17.7 | 24.1 | 0.00 | 0.00 | 0.00 | 63 | |
| 20260506101826 | 22 | 315 | 17.7 | 24.1 | 0.00 | 0.00 | 0.00 | 63 | |
| 20260506101550 | 21 | 126 | 14.5 | 24.1 | 0.00 | 0.00 | 0.00 | 63 | 1012.9 |
| 20260506100905 | 22 | 180 | 12.9 | 17.7 | 0.00 | 0.00 | 0.00 | 64 | |
| 20260506100012 | 21 | 136 | 8.0 | 17.7 | 0.00 | 0.00 | 0.00 | 64 | 1012.8 |
| 20260506100005 | 22 | 157 | 1.6 | 17.7 | 0.00 | 0.00 | 0.00 | 63 | |
| 20260506095405 | 22 | 157 | 1.6 | 17.7 | 0.00 | 0.00 | 0.00 | 63 | |
| 20260506094600 | 22 | 39 | 6.4 | 17.7 | 0.00 | 0.00 | 0.00 | 63 | 1012.7 |
| 20260506094506 | 22 | 247 | 3.2 | 8.0 | 0.00 | 0.00 | 0.00 | 60 | |
| 20260506093605 | 22 | 247 | 3.2 | 8.0 | 0.00 | 0.00 | 0.00 | 60 | |
| 20260506093018 | 22 | 331 | 3.2 | 8.0 | 0.00 | 0.00 | 0.00 | 60 | 1012.8 |
| 20260506092726 | 22 | 180 | 3.2 | 8.0 | 0.00 | 0.00 | 0.00 | 62 | |
| 20260506091826 | 22 | 180 | 3.2 | 8.0 | 0.00 | 0.00 | 0.00 | 62 | |
| 20260506091502 | 22 | 56 | 3.2 | 8.0 | 0.00 | 0.00 | 0.00 | 62 | 1012.8 |
| 20260506090905 | 22 | 67 | 8.0 | 9.7 | 0.00 | 0.00 | 0.00 | 62 | |
| 20260506090056 | 22 | 323 | 4.8 | 9.7 | 0.00 | 0.00 | 0.00 | 62 | 1012.7 |
| 20260506090005 | 22 | 112 | 3.2 | 14.5 | 0.00 | 0.00 | 0.00 | 62 | |
| 20260506085405 | 22 | 112 | 3.2 | 14.5 | 0.00 | 0.00 | 0.00 | 62 | |
| 20260506084529 | 22 | 5 | 6.4 | 14.5 | 0.00 | 0.00 | 0.00 | 62 | 1012.7 |
| 20260506084505 | 22 | 22 | 0.0 | 14.5 | 0.00 | 0.00 | 0.00 | 65 | |
| 20260506083605 | 22 | 22 | 0.0 | 14.5 | 0.00 | 0.00 | 0.00 | 65 | |
| 20260506083004 | 21 | 289 | 3.2 | 14.5 | 0.00 | 0.00 | 0.00 | 65 | 1012.6 |
| 20260506082705 | 21 | 225 | 3.2 | 12.9 | 0.00 | 0.00 | 0.00 | 68 | |
| 20260506081806 | 21 | 225 | 3.2 | 12.9 | 0.00 | 0.00 | 0.00 | 68 | |
| 20260506081602 | 21 | 106 | 1.6 | 12.9 | 0.00 | 0.00 | 0.00 | 68 | 1012.6 |
| 20260506080905 | 22 | 22 | 6.4 | 14.5 | 0.00 | 0.00 | 0.00 | 69 | |
| 20260506073116 | 20 | 41 | 1.6 | 12.9 | 0.00 | 0.00 | 0.00 | 78 | 1012.6 |
| 20260506072705 | 19 | 67 | 6.4 | 8.0 | 0.00 | 0.00 | 0.00 | 86 | |
| 20260506071826 | 19 | 67 | 6.4 | 8.0 | 0.00 | 0.00 | 0.00 | 86 | |
| 20260506071552 | 18 | 51 | 3.2 | 8.0 | 0.00 | 0.00 | 0.00 | 86 | 1012.9 |
| 20260506070905 | 18 | 157 | 6.4 | 9.7 | 0.00 | 0.00 | 0.00 | 90 | |
| 20260506061805 | 16 | 337 | 4.8 | 9.7 | 0.00 | 0.00 | 0.00 | 95 | |
| 20260506061521 | 15 | 31 | 3.2 | 9.7 | 0.00 | 0.00 | 0.00 | 95 | 1012.9 |
| 20260506060905 | 15 | 180 | 6.4 | 8.0 | 0.00 | 0.00 | 0.00 | 95 | |
| 20260506060108 | 15 | 56 | 4.8 | 8.0 | 0.00 | 0.00 | 0.00 | 95 | 1013.0 |
| 20260506050906 | 12 | 270 | 3.2 | 9.7 | 0.00 | 0.00 | 0.00 | 96 | |
| 20260506044714 | 11 | 40 | 4.8 | 8.0 | 0.00 | 0.00 | 0.00 | 96 | 1012.2 |
| 20260506044505 | 11 | 157 | 3.2 | 4.8 | 0.00 | 0.00 | 0.00 | 95 | |
| 20260506043605 | 11 | 157 | 3.2 | 4.8 | 0.00 | 0.00 | 0.00 | 95 | |
| 20260506043059 | 10 | 135 | 3.2 | 4.8 | 0.00 | 0.00 | 0.00 | 95 | 1012.1 |
| 20260506042726 | 11 | 135 | 1.6 | 3.2 | 0.00 | 0.00 | 0.00 | 95 | |
| 20260506041805 | 11 | 135 | 1.6 | 3.2 | 0.00 | 0.00 | 0.00 | 95 | |
| 20260506041526 | 10 | 134 | 0.0 | 3.2 | 0.00 | 0.00 | 0.00 | 95 | 1012.0 |
| 20260506040926 | 11 | 157 | 0.0 | 3.2 | 0.00 | 0.00 | 0.00 | 94 | |
| 20260506040026 | 11 | 157 | 3.2 | 4.8 | 0.00 | 0.00 | 0.00 | 94 | |
| 20260506040014 | 10 | 135 | 0.0 | 3.2 | 0.00 | 0.00 | 0.00 | 94 | 1011.9 |
| 20260506035405 | 11 | 157 | 3.2 | 4.8 | 0.00 | 0.00 | 0.00 | 94 | |
| 20260506034505 | 11 | 157 | 3.2 | 4.8 | 0.00 | 0.00 | 0.00 | 95 | |
| 20260506034502 | 10 | 135 | 1.6 | 4.8 | 0.00 | 0.00 | 0.00 | 94 | 1011.8 |
| 20260506033626 | 11 | 157 | 3.2 | 4.8 | 0.00 | 0.00 | 0.00 | 95 | |
| 20260506033104 | 10 | 135 | 1.6 | 4.8 | 0.00 | 0.00 | 0.00 | 95 | 1011.9 |
| 20260506032705 | 11 | 180 | 0.0 | 3.2 | 0.00 | 0.00 | 0.00 | 94 | |
| 20260506031805 | 11 | 180 | 0.0 | 3.2 | 0.00 | 0.00 | 0.00 | 94 | |
| 20260506031546 | 11 | 360 | 0.0 | 3.2 | 0.00 | 0.00 | 0.00 | 94 | 1011.8 |
| 20260506030905 | 11 | 180 | 0.0 | 1.6 | 0.00 | 0.00 | 0.00 | 94 | |
| 20260506030021 | 11 | 360 | 0.0 | 1.6 | 0.00 | 0.00 | 0.00 | 94 | 1011.8 |
| 20260506030005 | 11 | 0 | 0.0 | 0.0 | 0.00 | 0.00 | 0.00 | 94 | |
| 20260506025405 | 11 | 0 | 0.0 | 0.0 | 0.00 | 0.00 | 0.00 | 94 | |
| 20260506024526 | 12 | 180 | 0.0 | 3.2 | 0.00 | 0.00 | 0.00 | 94 | |
| 20260506024508 | 11 | 360 | 0.0 | 0.0 | 0.00 | 0.00 | 0.00 | 94 | 1011.7 |
| 20260506023605 | 12 | 180 | 0.0 | 3.2 | 0.00 | 0.00 | 0.00 | 94 | |
| 20260506023113 | 11 | 360 | 0.0 | 3.2 | 0.00 | 0.00 | 0.00 | 94 | 1011.8 |
| 20260506022705 | 12 | 180 | 1.6 | 4.8 | 0.00 | 0.00 | 0.00 | 94 | |
| 20260506021805 | 12 | 180 | 1.6 | 4.8 | 0.00 | 0.00 | 0.00 | 94 | |
| 20260506021559 | 12 | 360 | 0.0 | 4.8 | 0.00 | 0.00 | 0.00 | 94 | 1011.9 |
| 20260506020905 | 12 | 112 | 4.8 | 6.4 | 0.00 | 0.00 | 0.00 | 94 | |
| 20260506020046 | 11 | 5 | 3.2 | 6.4 | 0.00 | 0.00 | 0.00 | 94 | 1012.1 |
| 20260506020005 | 12 | 112 | 3.2 | 8.0 | 0.00 | 0.00 | 0.00 | 93 | |
| 20260506015405 | 12 | 112 | 3.2 | 8.0 | 0.00 | 0.00 | 0.00 | 93 | |
| 20260506014526 | 12 | 360 | 3.2 | 4.8 | 0.00 | 0.00 | 0.00 | 94 | |
| 20260506014524 | 12 | 5 | 4.8 | 8.0 | 0.00 | 0.00 | 0.00 | 93 | 1012.2 |
| 20260506013606 | 12 | 360 | 3.2 | 4.8 | 0.00 | 0.00 | 0.00 | 94 | |
| 20260506013004 | 12 | 208 | 3.2 | 4.8 | 0.00 | 0.00 | 0.00 | 94 | 1012.2 |
| 20260506012705 | 12 | 360 | 3.2 | 4.8 | 0.00 | 0.00 | 0.00 | 93 | |
| 20260506011805 | 12 | 360 | 3.2 | 4.8 | 0.00 | 0.00 | 0.00 | 93 | |
| 20260506011627 | 11 | 208 | 1.6 | 4.8 | 0.00 | 0.00 | 0.00 | 93 | 1012.1 |
| 20260506010905 | 12 | 360 | 3.2 | 4.8 | 0.00 | 0.00 | 0.00 | 92 | |
| 20260506010054 | 11 | 208 | 3.2 | 4.8 | 0.00 | 0.00 | 0.00 | 92 | 1012.3 |
| 20260506010006 | 12 | 360 | 3.2 | 4.8 | 0.00 | 0.00 | 0.00 | 93 | |
| 20260506005405 | 12 | 360 | 3.2 | 4.8 | 0.00 | 0.00 | 0.00 | 93 | |
| 20260506004532 | 12 | 208 | 1.6 | 4.8 | 0.00 | 0.00 | 0.00 | 93 | 1012.3 |
| 20260506004505 | 12 | 360 | 1.6 | 6.4 | 0.00 | 0.00 | 0.00 | 93 | |
| 20260506003626 | 12 | 360 | 1.6 | 6.4 | 0.00 | 0.00 | 0.00 | 93 | |
| 20260506003009 | 12 | 208 | 1.6 | 6.4 | 0.00 | 0.00 | 0.00 | 93 | 1012.4 |
| 20260506002727 | 12 | 360 | 0.0 | 3.2 | 0.00 | 0.00 | 0.00 | 92 | |
| 20260506001805 | 12 | 360 | 0.0 | 3.2 | 0.00 | 0.00 | 0.00 | 92 | |
| 20260506001608 | 12 | 208 | 0.0 | 3.2 | 0.00 | 0.00 | 0.00 | 92 | 1012.5 |
| 20260506000905 | 13 | 360 | 0.0 | 3.2 | 0.00 | 0.00 | 0.00 | 92 | |
| 20260506000054 | 13 | 208 | 0.0 | 3.2 | 0.00 | 0.00 | 0.00 | 92 | 1012.5 |
| 20260506000005 | 13 | 360 | 3.2 | 4.8 | 0.00 | 0.00 | 0.00 | 92 | |
| 20260505235405 | 13 | 360 | 3.2 | 4.8 | 0.00 | 0.00 | 0.00 | 92 | |
| 20260505234558 | 13 | 208 | 1.6 | 4.8 | 0.00 | 0.00 | 0.00 | 92 | 1012.6 |
| 20260505234506 | 13 | 360 | 3.2 | 4.8 | 0.00 | 0.00 | 0.00 | 92 |